[[{"header":{"parameterUnit":"m.s-1","parameterCategory":1,"la1":30.2991,"la2":30.254,"lo1":-89.0895,"lo2":-89.0444,"dy":0.0017,"dx":0.0017,"nx":28,"ny":28,"refTime":"2024-06-12T03:00:00:Z","depth":0,"parameterNumber":2,"parameterNumberName":"U-component_of_WINDS"},"data":[0,0,0,0,0,0,0,0,0,0,0,0,0,0,0,0,0,0,0,0,0,0,0,0,0,0,0,0,0,0,0,0,0,0,0,0,0,0,0,0,0,0,0,0,0,0,0,0,0,0,0,0,0,0,0,0,0,0,-0.4354,-0.4354,0,-0.4352,-0.4352,-0.4352,-0.4293,-0.4291,-0.4289,-0.4288,-0.429,-0.4292,-0.4293,0,0,0,0,0,0,0,0,0,0,0,0,0,-0.4309,-0.431,-0.4354,-0.4354,-0.4354,-0.4352,-0.4352,-0.4352,-0.4293,-0.4291,-0.4289,-0.4287,-0.429,-0.4292,-0.4293,0,0,0,0,0,0,0,0,0,0,0,0,0,-0.432,-0.4311,-0.4354,-0.4324,-0.4321,-0.4352,-0.4352,-0.4352,-0.4293,-0.4291,-0.4289,-0.4286,-0.4289,-0.4291,-0.4294,-0.4354,0,0,-0.4301,-0.4302,0,0,0,0,0,0,0,0,-0.432,-0.4322,-0.4328,-0.4326,-0.4323,-0.432,-0.4337,-0.4353,-0.4294,-0.4304,-0.4288,-0.4285,-0.4302,-0.4303,-0.4308,-0.4354,-0.4354,-0.4301,-0.4302,-0.4303,-0.4304,0,0,0,0,0,0,0,-0.4319,-0.4322,-0.4353,-0.4328,-0.4325,-0.4312,-0.4311,-0.434,-0.4316,-0.4303,-0.4299,-0.4299,-0.43,-0.4306,-0.4308,-0.4354,-0.4301,-0.4303,-0.4304,-0.4305,-0.4451,-0.4454,0,0,0,0,0,0,-0.4322,-0.4322,-0.4353,-0.4353,-0.4315,-0.4314,-0.4313,-0.4323,-0.4316,-0.4312,-0.4301,-0.4296,-0.4304,-0.4305,-0.4308,-0.4379,-0.4303,-0.4305,-0.4306,-0.4449,-0.4452,-0.4454,0,0,0,0,0,0,-0.4321,-0.4325,-0.4353,-0.4336,-0.4339,-0.4318,-0.433,-0.4325,-0.433,-0.4314,-0.431,-0.4311,-0.4302,-0.4305,-0.4343,-0.4378,-0.4306,-0.4308,-0.4446,-0.445,-0.4453,-0.4522,0,0,0,0,0,0,-0.432,-0.4325,-0.4347,-0.4337,-0.434,-0.4388,-0.4332,-0.4326,-0.4334,-0.4328,-0.4323,-0.432,-0.43,-0.434,-0.4345,-0.438,-0.431,-0.4442,-0.4447,-0.4452,-0.4516,-0.4527,-0.4537,0,0,0,0,0,-0.4319,-0.4367,-0.4349,-0.4353,-0.4367,-0.439,-0.4391,-0.4367,-0.4337,-0.436,-0.4349,-0.432,-0.4373,-0.4344,-0.435,-0.4386,-0.444,-0.4446,-0.4451,-0.4512,-0.4525,-0.4537,0,0,0,0,0,0,-0.4384,-0.4366,-0.4345,-0.4391,-0.4392,-0.438,-0.4407,-0.4382,-0.4393,-0.4387,-0.4357,-0.4356,-0.44,-0.4396,-0.4365,-0.4445,-0.4402,-0.4409,-0.4445,-0.4458,-0.4468,-0.4469,-0.4312,0,0,0,0,0,-0.4403,-0.4422,-0.4406,-0.4449,-0.445,-0.4429,-0.4438,-0.4419,-0.4419,-0.442,-0.4413,-0.4415,-0.4433,-0.4445,-0.446,-0.4515,-0.4514,-0.4542,-0.4553,-0.4561,-0.4568,-0.4598,-0.4611,-0.4473,-0.4473,-0.4473,0,0,-0.4444,-0.4437,-0.4451,-0.4461,-0.446,-0.4482,-0.443,-0.4455,-0.4471,-0.4424,-0.446,-0.4455,-0.4456,-0.4503,-0.4524,-0.4502,-0.4606,-0.4569,-0.4576,-0.4578,-0.4605,-0.4618,-0.463,-0.4477,-0.4476,-0.4476,0,0,-0.4531,-0.4526,-0.4561,-0.4561,-0.4559,-0.4544,-0.4553,-0.4544,-0.4539,-0.4574,-0.4539,-0.4559,-0.4589,-0.4591,-0.4597,-0.4684,-0.4658,-0.4689,-0.4744,-0.4773,-0.4784,-0.4794,-0.4826,-0.4838,-0.4696,-0.4696,-0.4696,0,-0.4582,-0.4612,-0.4583,-0.4611,-0.4617,-0.4574,-0.461,-0.4612,-0.4616,-0.4622,-0.4596,-0.4634,-0.4632,-0.4679,-0.47,-0.4706,-0.4716,-0.4691,-0.4785,-0.4794,-0.4803,-0.4833,-0.4845,-0.47,-0.47,-0.4699,-0.4699,0,-0.4677,-0.4698,-0.4727,-0.4731,-0.474,-0.4772,-0.4749,-0.4762,-0.4742,-0.4731,-0.4768,-0.4763,-0.4777,-0.4787,-0.4768,-0.4832,-0.4819,-0.479,-0.4746,-0.482,-0.4848,-0.486,-0.4706,-0.4705,-0.4703,-0.4702,0,0,-0.4805,-0.4791,-0.4803,-0.4804,-0.4799,-0.4815,-0.4846,-0.4858,-0.487,-0.4875,-0.49,-0.4927,-0.49,-0.4906,-0.4887,-0.4913,-0.4983,-0.4881,-0.488,-0.4901,-0.5055,-0.5078,-0.5092,-0.4965,-0.4967,-0.4969,-0.5056,0,-0.4889,-0.4939,-0.4914,-0.4967,-0.4988,-0.4947,-0.4974,-0.4974,-0.4964,-0.4981,-0.497,-0.499,-0.4952,-0.4956,-0.4979,-0.497,-0.5014,-0.4963,-0.4991,-0.4992,-0.4993,-0.5106,-0.5131,-0.5213,-0.5066,-0.5068,-0.5069,0,-0.4994,-0.5002,-0.5057,-0.5048,-0.5056,-0.508,-0.509,-0.5105,-0.5106,-0.5097,-0.5103,-0.5078,-0.5109,-0.5065,-0.5107,-0.5073,-0.5082,-0.508,-0.5082,-0.5085,-0.5036,-0.5114,-0.5238,-0.5251,-0.5086,-0.5085,-0.5084,0,-0.5084,-0.5108,-0.5144,-0.5146,-0.5137,-0.5155,-0.5152,-0.5149,-0.5158,-0.5167,-0.5173,-0.5185,-0.5193,-0.5203,-0.5183,-0.5152,-0.5229,-0.5183,-0.5224,-0.5225,-0.5243,-0.5243,-0.5372,-0.5247,-0.5247,-0.5247,-0.5246,0,-0.5181,-0.5217,-0.5184,-0.5207,-0.5246,-0.5217,-0.5257,-0.525,-0.5248,-0.527,-0.5235,-0.5257,-0.5227,-0.5246,-0.5231,-0.5269,-0.5272,-0.5267,-0.5263,-0.5271,-0.5272,-0.5278,-0.5272,-0.525,-0.5249,-0.5249,-0.5248,0,-0.5289,-0.5267,-0.5305,-0.5292,-0.529,-0.532,-0.531,-0.5331,-0.5318,-0.5346,-0.5351,-0.5331,-0.5352,-0.5332,-0.5351,-0.5341,-0.5393,-0.5379,-0.5392,-0.5389,-0.5432,-0.5429,-0.5572,-0.5589,-0.5452,-0.5453,-0.5454,0,-0.5353,-0.538,-0.5369,-0.5381,-0.538,-0.5398,-0.5407,-0.5379,-0.539,-0.5392,-0.5414,-0.5431,-0.5443,-0.5478,-0.5466,-0.5481,-0.5469,-0.5518,-0.5471,-0.5479,-0.5472,-0.5471,-0.5474,-0.5528,-0.553,-0.5531,-0.5532,0,-0.547,-0.5458,-0.5471,-0.5481,-0.5493,-0.55,-0.5504,-0.5515,-0.5487,-0.5501,-0.5521,-0.553,-0.555,-0.5568,-0.5579,-0.5577,-0.5551,-0.5547,-0.5557,-0.5567,-0.5574,-0.5572,-0.542,-0.5544,-0.5543,-0.5542,-0.5541,-0.5541,-0.5559,-0.5581,-0.5577,-0.5593,-0.5593,-0.5598,-0.5618,-0.5607,-0.5622,-0.5635,-0.5618,-0.5643,-0.5643,-0.5655,-0.5656,-0.5676,-0.5656,-0.5671,-0.5675,-0.568,-0.5687,-0.5569,-0.5678,-0.5678,-0.5677,-0.5677,-0.5677,0,-0.5675,-0.567,-0.5686,-0.5692,-0.5705,-0.5677,-0.5681,-0.5694,-0.5716,-0.5717,-0.573,-0.5753,-0.577,-0.576,-0.5775,-0.5793,-0.5781,-0.5798,-0.5797,-0.5798,-0.5703,-0.5693,-0.5807,-0.5807,-0.5807,-0.5807,-0.5807,-0.5807,-0.5737,-0.5773,-0.5761,-0.5797,-0.5793,-0.5816,-0.582,-0.5825,-0.5826,-0.5853,-0.5867,-0.5859,-0.5856,-0.5871,-0.5886,-0.5883,-0.5891,-0.5912,-0.5905,-0.5817,-0.5804,-0.5792,-0.5783,-0.5914,-0.5914,-0.5998,-0.5998,-0.5999]},{"header":{"parameterUnit":"m.s-1","parameterCategory":1,"la1":30.2991,"la2":30.254,"lo1":-89.0895,"lo2":-89.0444,"dy":0.0017,"dx":0.0017,"nx":28,"ny":28,"refTime":"2024-06-12T03:00:00:Z","depth":0,"parameterNumber":3,"parameterNumberName":"V-component_of_WINDS"},"data":[0,0,0,0,0,0,0,0,0,0,0,0,0,0,0,0,0,0,0,0,0,0,0,0,0,0,0,0,0,0,0,0,0,0,0,0,0,0,0,0,0,0,0,0,0,0,0,0,0,0,0,0,0,0,0,0,0,0,-2.2898,-2.2898,0,-2.2879,-2.2878,-2.2878,-2.2831,-2.283,-2.2829,-2.2828,-2.2809,-2.2809,-2.281,0,0,0,0,0,0,0,0,0,0,0,0,0,-2.2897,-2.2897,-2.2899,-2.2898,-2.2898,-2.2879,-2.2878,-2.2878,-2.2831,-2.283,-2.2828,-2.2827,-2.2809,-2.2809,-2.281,0,0,0,0,0,0,0,0,0,0,0,0,0,-2.289,-2.2898,-2.2899,-2.2872,-2.2869,-2.2879,-2.2878,-2.2878,-2.2831,-2.283,-2.2828,-2.2827,-2.2809,-2.2809,-2.281,-2.2844,0,0,-2.2812,-2.2812,0,0,0,0,0,0,0,0,-2.289,-2.289,-2.2876,-2.2874,-2.2871,-2.2856,-2.2871,-2.2867,-2.2831,-2.2846,-2.2828,-2.2826,-2.2826,-2.2825,-2.2825,-2.2843,-2.2842,-2.2812,-2.2812,-2.2813,-2.2813,0,0,0,0,0,0,0,-2.2891,-2.289,-2.2891,-2.2876,-2.2873,-2.2862,-2.2859,-2.287,-2.2844,-2.2844,-2.2841,-2.2839,-2.2824,-2.2824,-2.2824,-2.2842,-2.2812,-2.2813,-2.2813,-2.2813,-2.2887,-2.2889,0,0,0,0,0,0,-2.2895,-2.2891,-2.2891,-2.289,-2.2877,-2.2863,-2.286,-2.2862,-2.2844,-2.284,-2.284,-2.2837,-2.2824,-2.2823,-2.2823,-2.2861,-2.2813,-2.2813,-2.2814,-2.2886,-2.2888,-2.2889,0,0,0,0,0,0,-2.2895,-2.2895,-2.2892,-2.289,-2.2888,-2.2865,-2.2867,-2.2862,-2.2862,-2.2841,-2.2837,-2.2845,-2.2823,-2.2822,-2.2839,-2.286,-2.2814,-2.2814,-2.2884,-2.2886,-2.2889,-2.2938,0,0,0,0,0,0,-2.2895,-2.2896,-2.2908,-2.289,-2.2889,-2.2908,-2.2869,-2.2863,-2.2863,-2.2859,-2.2844,-2.284,-2.2821,-2.2838,-2.284,-2.286,-2.2815,-2.2882,-2.2885,-2.2888,-2.2935,-2.2942,-2.2948,0,0,0,0,0,-2.2895,-2.2923,-2.2909,-2.2909,-2.2903,-2.2909,-2.2908,-2.2885,-2.2865,-2.2877,-2.2864,-2.2841,-2.2858,-2.284,-2.2841,-2.2862,-2.288,-2.2884,-2.2888,-2.2931,-2.2941,-2.2948,0,0,0,0,0,0,-2.2944,-2.292,-2.2904,-2.2927,-2.292,-2.2901,-2.2916,-2.2896,-2.2895,-2.2891,-2.2863,-2.286,-2.2881,-2.2874,-2.2855,-2.2894,-2.2865,-2.2869,-2.2898,-2.2907,-2.2913,-2.2915,-2.2815,0,0,0,0,0,-2.2957,-2.2964,-2.2943,-2.2965,-2.2962,-2.294,-2.2942,-2.2925,-2.2917,-2.2914,-2.2902,-2.2896,-2.29,-2.2903,-2.2905,-2.2934,-2.293,-2.2949,-2.2955,-2.2961,-2.2965,-2.2979,-2.2987,-2.2901,-2.2901,-2.2901,0,0,-2.2985,-2.2973,-2.2979,-2.2974,-2.2967,-2.2975,-2.2938,-2.2948,-2.2953,-2.2916,-2.2931,-2.2922,-2.2913,-2.2936,-2.2945,-2.293,-2.2988,-2.2966,-2.297,-2.2971,-2.2983,-2.2992,-2.2999,-2.2903,-2.2903,-2.2903,0,0,-2.3039,-2.3031,-2.3048,-2.3042,-2.3031,-2.3016,-2.3021,-2.3005,-2.2997,-2.3012,-2.2984,-2.2991,-2.2998,-2.2993,-2.2991,-2.3044,-2.3023,-2.3046,-2.3082,-2.3096,-2.3103,-2.3109,-2.3127,-2.3134,-2.305,-2.305,-2.305,0,-2.3075,-2.3085,-2.306,-2.3071,-2.307,-2.3036,-2.3054,-2.3049,-2.3041,-2.3041,-2.3025,-2.3033,-2.3025,-2.3046,-2.3059,-2.3059,-2.3063,-2.3047,-2.3104,-2.3109,-2.3114,-2.3132,-2.3139,-2.3053,-2.3053,-2.3052,-2.3052,0,-2.3129,-2.3136,-2.3152,-2.3144,-2.3145,-2.3159,-2.3137,-2.3141,-2.3124,-2.3111,-2.3126,-2.3116,-2.3115,-2.3119,-2.3103,-2.3138,-2.3129,-2.3109,-2.3079,-2.3126,-2.3142,-2.3148,-2.3057,-2.3056,-2.3055,-2.3054,0,0,-2.3212,-2.3191,-2.3197,-2.3192,-2.3179,-2.3184,-2.3198,-2.3197,-2.3201,-2.3197,-2.3207,-2.3214,-2.3195,-2.3194,-2.3177,-2.319,-2.3232,-2.3167,-2.3167,-2.3179,-2.327,-2.3285,-2.3293,-2.3218,-2.3219,-2.322,-2.327,0,-2.3263,-2.3283,-2.3261,-2.3287,-2.3293,-2.3262,-2.3274,-2.3267,-2.3256,-2.326,-2.3247,-2.3253,-2.3227,-2.3226,-2.3237,-2.3225,-2.325,-2.3221,-2.3228,-2.3228,-2.323,-2.3301,-2.3317,-2.3365,-2.3276,-2.3277,-2.3278,0,-2.3324,-2.3322,-2.3348,-2.3333,-2.3335,-2.3345,-2.3343,-2.3347,-2.334,-2.333,-2.3329,-2.3309,-2.3321,-2.3293,-2.331,-2.3291,-2.3292,-2.3287,-2.3288,-2.3287,-2.3256,-2.3302,-2.3379,-2.3386,-2.3288,-2.3287,-2.3286,0,-2.3382,-2.3385,-2.3401,-2.3399,-2.3382,-2.339,-2.3384,-2.3374,-2.3375,-2.3374,-2.3374,-2.3374,-2.3374,-2.3375,-2.3356,-2.3337,-2.3375,-2.3345,-2.3368,-2.3368,-2.3377,-2.3376,-2.3455,-2.3379,-2.3379,-2.3379,-2.3379,0,-2.344,-2.3457,-2.3427,-2.3437,-2.3455,-2.343,-2.3449,-2.3439,-2.3432,-2.3439,-2.3413,-2.3421,-2.3395,-2.34,-2.3385,-2.3401,-2.3402,-2.3395,-2.3391,-2.3397,-2.3398,-2.3397,-2.3393,-2.3381,-2.338,-2.338,-2.338,0,-2.3507,-2.3488,-2.3503,-2.3486,-2.3482,-2.3496,-2.3481,-2.349,-2.3477,-2.3487,-2.3488,-2.3468,-2.3473,-2.3454,-2.3456,-2.3445,-2.347,-2.346,-2.3472,-2.3469,-2.3493,-2.3491,-2.3573,-2.3583,-2.3501,-2.3502,-2.3503,0,-2.3545,-2.3557,-2.3541,-2.3544,-2.3539,-2.3544,-2.3545,-2.3521,-2.3523,-2.3516,-2.3525,-2.3528,-2.3529,-2.3539,-2.3524,-2.3526,-2.3516,-2.3545,-2.3516,-2.3522,-2.3516,-2.3515,-2.3516,-2.3551,-2.3552,-2.3552,-2.3553,0,-2.3614,-2.3604,-2.3606,-2.3605,-2.3606,-2.3604,-2.36,-2.3605,-2.3579,-2.3583,-2.3588,-2.3588,-2.359,-2.3593,-2.3592,-2.3586,-2.3565,-2.3562,-2.3568,-2.3574,-2.358,-2.3577,-2.3488,-2.356,-2.356,-2.3559,-2.3559,-2.3558,-2.3667,-2.3677,-2.3667,-2.367,-2.3665,-2.3662,-2.3669,-2.3657,-2.366,-2.3659,-2.3646,-2.3653,-2.3645,-2.3641,-2.3637,-2.3643,-2.3629,-2.3637,-2.3639,-2.3641,-2.3645,-2.358,-2.3643,-2.3642,-2.3642,-2.3642,-2.3642,0,-2.3735,-2.3727,-2.373,-2.3726,-2.3728,-2.3709,-2.3704,-2.3707,-2.3714,-2.3708,-2.3709,-2.3715,-2.3718,-2.3704,-2.3705,-2.3713,-2.3703,-2.3714,-2.3713,-2.3712,-2.3657,-2.3652,-2.3721,-2.3721,-2.3721,-2.3721,-2.3721,-2.3721,-2.377,-2.3785,-2.3774,-2.3786,-2.3778,-2.3785,-2.3784,-2.3781,-2.3776,-2.3783,-2.3786,-2.3777,-2.3768,-2.3768,-2.377,-2.3766,-2.3768,-2.3781,-2.3774,-2.3723,-2.3716,-2.3708,-2.3703,-2.3782,-2.3782,-2.3828,-2.3828,-2.3829]}]]